This is the latest recevied weather packets stored in our database for station/object VK4TW-13. If no packets are shown the sender has not sent any weather packets the latest 10 day(s).
| Time | Temp. | Humidity | Pressure | Rain* | Wind** | Luminosity | Snow |
|---|---|---|---|---|---|---|---|
| 1778165736 | 20° C | 100% | 1016.3 hPa | 0 mm | - | - | - |
| 1778165136 | 20° C | 100% | 1016.5 hPa | 0 mm | - | - | - |
| 1778164534 | 20° C | 100% | 1016.4 hPa | 0 mm | - | - | - |
| 1778163333 | 20° C | 100% | 1016.5 hPa | 0 mm | - | - | - |
| 1778162731 | 20° C | 100% | 1016.7 hPa | 0 mm | - | - | - |
| 1778161531 | 20° C | 100% | 1016.7 hPa | 0 mm | - | - | - |
| 1778160930 | 20.56° C | 100% | 1016.8 hPa | 0 mm | - | - | - |
| 1778160327 | 20.56° C | 100% | 1016.8 hPa | 0 mm | - | - | - |
| 1778159727 | 20.56° C | 100% | 1016.9 hPa | 0 mm | - | - | - |
| 1778159125 | 20.56° C | 100% | 1016.8 hPa | 0 mm | - | - | - |
| 1778158525 | 21.11° C | 100% | 1016.8 hPa | 0 mm | - | - | - |
| 1778157926 | 21.11° C | 100% | 1016.7 hPa | 0 mm | - | - | - |
| 1778157322 | 21.11° C | 100% | 1016.8 hPa | 0 mm | - | - | - |
| 1778156721 | 21.11° C | 100% | 1016.8 hPa | 0 mm | - | - | - |
| 1778156121 | 21.11° C | 100% | 1016.8 hPa | 0 mm | - | - | - |
| 1778155519 | 20.56° C | 100% | 1016.9 hPa | 0 mm | - | - | - |
| 1778154918 | 20.56° C | 100% | 1016.9 hPa | 0 mm | - | - | - |
| 1778154318 | 21.11° C | 100% | 1016.8 hPa | 0 mm | - | - | - |
| 1778153716 | 21.11° C | 100% | 1016.7 hPa | 0 mm | - | - | - |
| 1778153115 | 21.11° C | 100% | 1016.7 hPa | 0 mm | - | - | - |
| 1778152515 | 21.11° C | 100% | 1016.7 hPa | 0 mm | - | - | - |
| 1778151913 | 21.67° C | 100% | 1016.7 hPa | 0 mm | - | - | - |
| 1778151313 | 21.67° C | 100% | 1016.9 hPa | 0 mm | - | - | - |
| 1778150712 | 21.67° C | 100% | 1016.8 hPa | 0 mm | - | - | - |
| 1778150111 | 22.22° C | 100% | 1016.7 hPa | 0 mm | - | - | - |
* Rain since midnight (hover to see other rain measurements)
** Current wind speed in m/s (hover to see current wind gust speed)